Location: Geçitköy
(36.7327°N, 29.8010°E)
Time: 18:56:38
(UTC+00:00)

Meteor 1-16 Rocket - Pass Details

Date: 12 January 2026
Orbit: 789 x 905 km, 81.2° (Epoch: 10 February)

Event Time Altitude Azimuth Distance (km) Brightness Sun altitude
Rises 16:26:39 0° 354° (N) 3,290 7.2 -16.1°
Reaches altitude 10° 16:29:02 10° 357° (N) 2,360 6.4 -16.5°
Maximum altitude 16:34:19 67° 80° (E) 863 4.0 -17.5°
Drops below altitude 10° 16:39:39 10° 163° (SSE) 2,385 6.5 -18.6°
Sets 16:42:04 0° 166° (SSE) 3,327 7.3 -19.0°
